Weather History for Madison, WI

Change the Weather History Date:

Friday, November 30, 2012

  Actual Average Record
Temperature  
Mean Temperature 41 °F 29 °F  
Max Temperature 45 °F 36 °F 63 °F (1998)
Min Temperature 37 °F 22 °F -4 °F (1947)
Degree Days  
Heating Degree Days 24 36  
Month to date heating degree days 800 866  
Since 1 July heating degree days 1515 1579  
Cooling Degree Days 0 0  
Month to date cooling degree days 0 0  
Year to date cooling degree days 1068 568  
Moisture  
Dew Point 35 °F    
Average Humidity 81    
Maximum Humidity 85    
Minimum Humidity 76    
Precipitation  
Precipitation 0.00 in 0.08 in 1.34 in (1928)
Month to date precipitation 0.90 2.39  
Year to date precipitation 23.76 32.74  
Snow  
Snow 0.00 in 0.20 in 8.80 in (1940)
Month to date snowfall 0.1 3.6  
Since 1 July snowfall 0.1 4.1  
Since 1 September snowfall 0.1 4.1  
Snow Depth 0.00 in    
Sea Level Pressure  
Sea Level Pressure 30.14 in    
Wind  
Wind Speed 9 mph (ENE)    
Max Wind Speed 15 mph    
Max Gust Speed 20 mph    
Visibility 5 miles    
Events      
T = Trace of Precipitation, MM = Missing Value Source: NWS Daily Summary

Daily Weather History Graph

Daily Weather History Graph

Search for Another Location

Airport:

Trip Planner

Search our weather history database for the weather conditions in past years. The results will help you decide how hot, cold, wet, or windy it might be!

Date:

Astronomy

Nov. 30, 2012 Rise Set
Actual Time 7:08 AM CST 4:23 PM CST
Civil Twilight 6:36 AM CST 4:55 PM CST
Nautical Twilight 6:01 AM CST 5:30 PM CST
Astronomical Twilight 5:27 AM CST 6:04 PM CST
Moon 6:18 PM CST (11/30) 8:40 AM CST (11/30)
Length of Visible Light 10h 18m
Length of Day
9h 14m
Waning Gibbous, 96% of the Moon is Illuminated
Nov 30
Waning Gibbous
Dec 6
Last Quarter
Dec 13
New
Dec 19
First Quarter
Dec 28
Full

Hourly Weather History & Observations

Time (CST) Temp. Windchill Dew Point Humidity Pressure Visibility Wind Dir Wind Speed Gust Speed Precip Events Conditions
12:53 AM 39.0 °F 34.0 °F 34.0 °F 82% 30.10 in 6.0 mi NE 6.9 mph - N/A   Haze
1:34 AM 37.4 °F 30.8 °F 33.8 °F 87% 30.10 in 6.0 mi NNE 9.2 mph - N/A   Overcast
1:44 AM 37.4 °F 29.8 °F 33.8 °F 87% 30.10 in 6.0 mi NNE 11.5 mph - N/A   Overcast
1:53 AM 37.0 °F 31.0 °F 33.1 °F 86% 30.12 in 6.0 mi North 8.1 mph - N/A   Overcast
2:53 AM 37.0 °F 29.8 °F 33.1 °F 86% 30.11 in 7.0 mi NE 10.4 mph - N/A   Overcast
3:53 AM 37.9 °F 32.1 °F 34.0 °F 86% 30.09 in 6.0 mi ENE 8.1 mph - N/A   Overcast
4:53 AM 37.9 °F 32.1 °F 34.0 °F 86% 30.10 in 5.0 mi NE 8.1 mph - N/A   Overcast
5:53 AM 37.9 °F 32.1 °F 34.0 °F 86% 30.12 in 5.0 mi WNW 8.1 mph - N/A   Overcast
6:53 AM 37.9 °F 31.5 °F 34.0 °F 86% 30.13 in 6.0 mi NNE 9.2 mph - N/A   Overcast
7:53 AM 37.0 °F 29.8 °F 34.0 °F 89% 30.13 in 4.0 mi NE 10.4 mph - N/A   Overcast
8:53 AM 39.0 °F 31.4 °F 35.1 °F 86% 30.13 in 4.0 mi NE 12.7 mph - N/A   Overcast
9:53 AM 39.9 °F 34.5 °F 36.0 °F 86% 30.16 in 3.0 mi NNE 8.1 mph - N/A   Overcast
10:53 AM 41.0 °F 34.7 °F 36.0 °F 82% 30.15 in 3.0 mi NE 10.4 mph - N/A   Haze
11:53 AM 42.1 °F 35.7 °F 37.0 °F 82% 30.14 in 3.0 mi NE 11.5 mph - N/A   Haze
12:10 PM 42.8 °F 37.5 °F 37.4 °F 81% 30.12 in 3.0 mi NE 9.2 mph - N/A   Haze
12:53 PM 43.0 °F 38.2 °F 37.0 °F 80% 30.14 in 3.0 mi NE 8.1 mph - N/A   Haze
1:53 PM 45.0 °F 40.1 °F 37.0 °F 74% 30.11 in 4.0 mi East 9.2 mph - N/A   Haze
2:03 PM 44.6 °F 38.8 °F 35.6 °F 71% 30.10 in 5.0 mi ENE 11.5 mph - N/A   Haze
2:53 PM 43.0 °F 37.7 °F 36.0 °F 76% 30.14 in 5.0 mi ENE 9.2 mph - N/A   Haze
3:53 PM 42.1 °F 36.6 °F 35.1 °F 76% 30.18 in 5.0 mi ENE 9.2 mph - N/A   Haze
4:53 PM 39.9 °F 33.9 °F 35.1 °F 83% 30.19 in 6.0 mi ENE 9.2 mph - N/A   Haze
5:50 PM 39.2 °F 33.0 °F 33.8 °F 81% 30.17 in 6.0 mi East 9.2 mph - N/A   Haze
5:53 PM 39.9 °F 33.4 °F 34.0 °F 79% 30.20 in 6.0 mi East 10.4 mph - N/A   Haze
6:53 PM 39.9 °F 33.9 °F 34.0 °F 79% 30.20 in 5.0 mi East 9.2 mph - N/A   Haze
7:53 PM 39.0 °F 31.4 °F 35.1 °F 86% 30.18 in 5.0 mi ESE 12.7 mph - N/A   Overcast
8:53 PM 39.0 °F 34.0 °F 35.1 °F 86% 30.19 in 5.0 mi ESE 6.9 mph - N/A   Overcast
9:53 PM 39.0 °F 35.7 °F 34.0 °F 82% 30.19 in 5.0 mi ESE 4.6 mph - N/A   Haze
10:53 PM 39.0 °F 34.8 °F 34.0 °F 82% 30.19 in 5.0 mi ESE 5.8 mph - N/A   Haze
11:53 PM 37.9 °F 32.1 °F 34.0 °F 86% 30.16 in 5.0 mi East 8.1 mph - N/A   Overcast